スキッフ彗星

P/2000 S1 ( Skiff )

English version
Home page
Updated on January 3, 2001

---------------------------------------------------------------------

・ プロフィール

発見日 2000年9月24日
発見光度 14.8等
発見者 B. A. Skiff (Lowell Observatory)

・ 軌道要素

T 2000 July 8.217 TT                                    Marsden
q   2.48410              (2000.0)            P               Q
n   0.057547       Peri.  305.699       +0.882287       +0.437285
a   6.64442        Node    29.547       -0.228253       +0.721137
e   0.62614        Incl.   20.689       -0.411668       +0.537347
P  17.1
From 30 observations 2000 Aug. 26-Sept. 26.

・ 星図

・ 光度変化

        m1 = 0.0 + 5 logΔ + 35 log r

---------------------------------------------------------------------

軌道要素は Dr. Brian G. Marsden の計算によるもので、 M.P.E.C. 2000-S60 に掲載されたものです。
星図は StellaNavigator Ver.2.0 for Windows (アストロアーツ 編著 / アスキー出版局刊) で作成したものです。
光度グラフはComet for Windowsで作成したものです。

---------------------------------------------------------------------

Copyright(C) Seiichi Yoshida (comet@aerith.net). All rights reserved.